Location: Aalen
(48.8330°N, 10.1000°E)
Time: 15:21:39
(UTC+02:00)

O/OREOS (USA 219) - Pass Details

Date: 05 April 2023
Orbit: 621 x 646 km, 72.0° (Epoch: 22 May)

Event Time Altitude Azimuth Distance (km) Brightness Sun altitude
Exits shadow 05:41:38 14° 223° (SW) 1,782 ? -11.6°
Maximum altitude 05:45:29 57° 300° (WNW) 754 ? -11.0°
Drops below altitude 10° 05:49:59 10° 20° (NNE) 2,030 ? -10.3°
Sets 05:52:18 0° 24° (NNE) 2,938 ? -10.0°
